Weather History for Buffalo, WY

Change the Weather History Date:

Saturday, September 7, 2013

  Actual Average Record
Temperature  
Mean Temperature 73 °F 62 °F  
Max Temperature 89 °F 76 °F 92 °F (1998)
Min Temperature 57 °F 49 °F 38 °F (2008)
Degree Days  
Heating Degree Days 0 5  
Month to date heating degree days 0 30  
Since 1 July heating degree days 1 95  
Cooling Degree Days 8 3  
Month to date cooling degree days 79 22  
Year to date cooling degree days 693 468  
Growing Degree Days 22 (Base 50)    
Moisture  
Dew Point 53 °F    
Average Humidity 45    
Maximum Humidity 63    
Minimum Humidity 27    
Precipitation  
Precipitation 0.71 in 0.04 in 0.71 in (2013)
Month to date precipitation 0.75 0.26  
Year to date precipitation 5.17 10.53  
Sea Level Pressure  
Sea Level Pressure 29.99 in    
Wind  
Wind Speed 7 mph (NW)    
Max Wind Speed 43 mph    
Max Gust Speed 53 mph    
Visibility 9 miles    
Events Fog , Rain , Thunderstorm    
T = Trace of Precipitation, MM = Missing Value Source: NWS Daily Summary

Daily Weather History Graph

Daily Weather History Graph

Search for Another Location

Airport:

Trip Planner

Search our weather history database for the weather conditions in past years. The results will help you decide how hot, cold, wet, or windy it might be!

Date:

Astronomy

Sep. 07, 2013 Rise Set
Actual Time 6:36 AM MDT 7:31 PM MDT
Civil Twilight 6:07 AM MDT 8:01 PM MDT
Nautical Twilight 5:32 AM MDT 8:36 PM MDT
Astronomical Twilight 4:55 AM MDT 9:13 PM MDT
Moon 9:01 AM MDT (9/7) 8:23 PM MDT (9/7)
Length of Visible Light 13h 53m
Length of Day
12h 54m
Waxing Crescent, 5% of the Moon is Illuminated
Sep 7
Waxing Crescent
Sep 12
First Quarter
Sep 19
Full
Sep 26
Last Quarter
Oct 4
New

Hourly Weather History & Observations

Time (MDT) Temp. Heat Index Dew Point Humidity Pressure Visibility Wind Dir Wind Speed Gust Speed Precip Events Conditions
12:53 AM 66.9 °F - 52.0 °F 59% 29.96 in 9.0 mi NW 9.2 mph - N/A   Clear
1:53 AM 68.0 °F - 52.0 °F 56% 29.95 in 10.0 mi WNW 8.1 mph - N/A   Clear
2:53 AM 69.1 °F - 51.1 °F 53% 29.94 in 10.0 mi NW 11.5 mph - N/A   Clear
3:53 AM 66.9 °F - 51.1 °F 57% 29.94 in 10.0 mi NW 11.5 mph - N/A   Clear
4:53 AM 68.0 °F - 51.1 °F 55% 29.94 in 10.0 mi NW 9.2 mph - N/A   Mostly Cloudy
5:53 AM 64.9 °F - 50.0 °F 58% 29.94 in 10.0 mi NW 6.9 mph - N/A   Clear
6:53 AM 64.0 °F - 51.1 °F 63% 29.98 in 10.0 mi Calm Calm - 0.00 in   Partly Cloudy
7:53 AM 69.1 °F - 51.1 °F 53% 29.99 in 10.0 mi SSW 5.8 mph - N/A   Clear
8:53 AM 73.0 °F - 51.1 °F 46% 29.98 in 10.0 mi South 5.8 mph - N/A   Clear
9:53 AM 80.1 °F - 51.1 °F 36% 29.96 in 10.0 mi North 4.6 mph - N/A   Clear
10:53 AM 81.0 °F - 50.0 °F 34% 29.96 in 10.0 mi Variable 3.5 mph - N/A   Clear
11:53 AM 84.9 °F - 48.9 °F 29% 29.95 in 10.0 mi Variable 4.6 mph - N/A   Clear
12:53 PM 86.0 °F - 48.0 °F 27% 29.94 in 10.0 mi Variable 3.5 mph - N/A   Clear
1:53 PM 86.0 °F - 50.0 °F 29% 29.92 in 10.0 mi NE 9.2 mph 24.2 mph N/A   Clear
2:43 PM 77.0 °F - 57.2 °F 50% 30.12 in 10.0 mi NW 5.8 mph - 0.02 in Rain , Thunderstorm Light Thunderstorms and Rain
2:53 PM 79.0 °F - 59.0 °F 50% 29.93 in 10.0 mi NNE 5.8 mph - 0.02 in Rain Light Rain
3:14 PM 80.6 °F 80.8 °F 57.2 °F 45% 30.11 in 10.0 mi NE 5.8 mph - 0.00 in Rain , Thunderstorm Light Rain
3:29 PM 82.4 °F 82.0 °F 57.2 °F 42% 30.11 in 10.0 mi NNE 5.8 mph - 0.00 in   Partly Cloudy
3:53 PM 82.9 °F 82.0 °F 55.0 °F 38% 29.91 in 10.0 mi ENE 3.5 mph - 0.00 in   Partly Cloudy
4:53 PM 86.0 °F 84.0 °F 53.1 °F 32% 29.89 in 10.0 mi North 5.8 mph - N/A   Clear
5:53 PM 84.9 °F 83.2 °F 53.1 °F 33% 29.89 in 10.0 mi NNW 11.5 mph - N/A   Partly Cloudy
6:53 PM 81.0 °F - 52.0 °F 36% 29.89 in 10.0 mi NW 8.1 mph - N/A   Clear
7:53 PM 73.9 °F - 53.1 °F 48% 29.89 in 10.0 mi WNW 9.2 mph - N/A   Clear
8:53 PM 73.0 °F - 53.1 °F 49% 29.90 in 10.0 mi WNW 8.1 mph - N/A   Partly Cloudy
9:53 PM 73.0 °F - 53.1 °F 49% 29.90 in 10.0 mi NNE 5.8 mph - N/A   Mostly Cloudy
10:06 PM 73.4 °F - 53.6 °F 50% 30.11 in 10.0 mi Calm Calm - N/A Thunderstorm Thunderstorm
10:18 PM 62.6 °F - 53.6 °F 72% 30.18 in 1.0 mi West 38.0 mph 52.9 mph 0.22 in Rain , Thunderstorm Heavy Thunderstorms and Rain
10:24 PM 57.2 °F - 53.6 °F 88% 30.21 in 0.5 mi SW 15.0 mph 52.9 mph 0.34 in Fog , Rain , Thunderstorm Heavy Thunderstorms and Rain
10:29 PM 60.8 °F - 55.4 °F 82% 30.19 in 2.0 mi WSW 6.9 mph 32.2 mph 0.37 in Rain , Thunderstorm Thunderstorms and Rain
10:53 PM 63.0 °F - 55.9 °F 78% 29.96 in 3.0 mi West 17.3 mph - 0.67 in Rain , Thunderstorm Heavy Thunderstorms and Rain
11:04 PM 64.4 °F - 55.4 °F 73% 30.12 in 9.0 mi West 13.8 mph - 0.02 in Rain , Thunderstorm Light Thunderstorms and Rain
11:42 PM 64.4 °F - 57.2 °F 77% 30.10 in 10.0 mi WNW 12.7 mph - 0.02 in   Mostly Cloudy
11:53 PM 63.0 °F - 55.9 °F 78% 29.90 in 10.0 mi NW 9.2 mph - 0.02 in   Scattered Clouds